Time,TemperatureF,DewpointF,PressureIn,WindDirection,WindDirectionDegrees,WindSpeedMPH,WindSpeedGustMPH,Humidity,HourlyPrecipIn,Conditions,Clouds,dailyrainin,SoftwareType,DateUTC
2013-02-26 00:08:00,32.0,31.0,29.48,North,355,7.0,20.0,94,0.01,,,0.00,weatherlink.com 1.10,2013-02-26 06:08:00,
2013-02-26 00:23:00,31.9,31.0,29.48,NNW,334,6.0,16.0,95,0.01,,,0.00,weatherlink.com 1.10,2013-02-26 06:23:00,
2013-02-26 00:38:00,31.6,30.0,29.48,NNW,342,5.0,14.0,94,0.00,,,0.00,weatherlink.com 1.10,2013-02-26 06:38:00,
2013-02-26 00:53:00,31.6,30.0,29.49,NW,315,10.0,14.0,95,0.00,,,0.00,weatherlink.com 1.10,2013-02-26 06:53:00,
2013-02-26 01:08:00,31.6,30.0,29.49,North,5,11.0,11.0,95,0.00,,,0.00,weatherlink.com 1.10,2013-02-26 07:08:00,
2013-02-26 01:23:00,31.6,30.0,29.50,NNW,332,10.0,14.0,95,0.00,,,0.00,weatherlink.com 1.10,2013-02-26 07:23:00,
2013-02-26 01:38:00,31.6,30.0,29.50,North,360,7.0,14.0,95,0.00,,,0.00,weatherlink.com 1.10,2013-02-26 07:38:00,
2013-02-26 01:53:00,31.6,30.0,29.50,NNW,345,10.0,17.0,95,0.00,,,0.00,weatherlink.com 1.10,2013-02-26 07:53:00,
2013-02-26 02:08:00,31.6,30.0,29.50,NNW,328,11.0,14.0,95,0.00,,,0.00,weatherlink.com 1.10,2013-02-26 08:08:00,
2013-02-26 02:23:00,31.8,31.0,29.50,North,360,8.0,14.0,95,0.01,,,0.01,weatherlink.com 1.10,2013-02-26 08:23:00,
2013-02-26 02:38:00,31.8,31.0,29.50,North,350,10.0,19.0,95,0.01,,,0.01,weatherlink.com 1.10,2013-02-26 08:38:00,
2013-02-26 02:53:00,31.9,31.0,29.51,NNW,329,9.0,23.0,95,0.02,,,0.02,weatherlink.com 1.10,2013-02-26 08:53:00,
2013-02-26 03:08:00,32.0,31.0,29.52,WNW,302,10.0,18.0,95,0.02,,,0.02,weatherlink.com 1.10,2013-02-26 09:08:00,
2013-02-26 03:23:00,31.9,31.0,29.52,NW,326,11.0,16.0,95,0.01,,,0.02,weatherlink.com 1.10,2013-02-26 09:23:00,
2013-02-26 03:38:00,31.7,31.0,29.52,NNW,331,14.0,19.0,95,0.01,,,0.02,weatherlink.com 1.10,2013-02-26 09:38:00,
2013-02-26 03:53:00,31.7,31.0,29.52,NNW,332,5.0,15.0,95,0.00,,,0.02,weatherlink.com 1.10,2013-02-26 09:53:00,
2013-02-26 04:08:00,31.9,31.0,29.54,NNW,331,11.0,16.0,95,0.00,,,0.02,weatherlink.com 1.10,2013-02-26 10:08:00,
2013-02-26 04:23:00,32.1,31.0,29.54,NNW,333,9.0,15.0,95,0.01,,,0.03,weatherlink.com 1.10,2013-02-26 10:23:00,
2013-02-26 04:38:00,32.5,31.0,29.55,NNW,347,10.0,17.0,95,0.02,,,0.04,weatherlink.com 1.10,2013-02-26 10:38:00,
2013-02-26 04:53:00,32.6,31.0,29.55,NW,322,8.0,20.0,95,0.02,,,0.04,weatherlink.com 1.10,2013-02-26 10:53:00,
2013-02-26 05:09:00,32.6,31.0,29.55,NW,317,12.0,22.0,95,0.03,,,0.05,weatherlink.com 1.10,2013-02-26 11:09:00,
2013-02-26 05:24:00,32.3,31.0,29.55,NW,322,12.0,22.0,95,0.02,,,0.05,weatherlink.com 1.10,2013-02-26 11:24:00,
2013-02-26 05:39:00,32.5,31.0,29.56,NW,304,16.0,21.0,95,0.02,,,0.06,weatherlink.com 1.10,2013-02-26 11:39:00,
2013-02-26 05:54:00,32.6,31.0,29.57,NNW,333,9.0,22.0,94,0.02,,,0.06,weatherlink.com 1.10,2013-02-26 11:54:00,
2013-02-26 06:09:00,32.9,31.0,29.57,NNW,339,19.0,21.0,94,0.02,,,0.07,weatherlink.com 1.10,2013-02-26 12:09:00,
2013-02-26 06:39:00,33.4,32.0,29.59,NW,312,15.0,23.0,93,0.02,,,0.08,weatherlink.com 1.10,2013-02-26 12:39:00,
2013-02-26 06:54:00,33.6,32.0,29.60,NW,320,7.0,20.0,92,0.02,,,0.08,weatherlink.com 1.10,2013-02-26 12:54:00,
2013-02-26 07:09:00,33.8,32.0,29.61,NNW,340,8.0,19.0,91,0.01,,,0.08,weatherlink.com 1.10,2013-02-26 13:09:00,
2013-02-26 07:24:00,33.9,31.0,29.61,NW,322,14.0,18.0,90,0.01,,,0.09,weatherlink.com 1.10,2013-02-26 13:24:00,
2013-02-26 07:39:00,34.0,31.0,29.61,NW,322,9.0,19.0,90,0.01,,,0.09,weatherlink.com 1.10,2013-02-26 13:39:00,
2013-02-26 07:54:00,34.1,31.0,29.62,NNW,332,11.0,21.0,89,0.01,,,0.09,weatherlink.com 1.10,2013-02-26 13:54:00,
2013-02-26 08:09:00,34.1,31.0,29.63,NNW,339,14.0,18.0,89,0.01,,,0.09,weatherlink.com 1.10,2013-02-26 14:09:00,
2013-02-26 08:24:00,34.2,31.0,29.64,NNW,330,12.0,21.0,89,0.00,,,0.09,weatherlink.com 1.10,2013-02-26 14:24:00,
2013-02-26 08:39:00,34.2,31.0,29.66,NW,317,10.0,16.0,89,0.00,,,0.09,weatherlink.com 1.10,2013-02-26 14:39:00,
2013-02-26 08:54:00,34.3,31.0,29.67,NW,315,20.0,21.0,89,0.01,,,0.10,weatherlink.com 1.10,2013-02-26 14:54:00,
2013-02-26 09:09:00,34.4,32.0,29.68,NW,305,10.0,16.0,89,0.01,,,0.10,weatherlink.com 1.10,2013-02-26 15:09:00,
2013-02-26 09:24:00,34.4,32.0,29.69,NW,319,8.0,19.0,89,0.01,,,0.10,weatherlink.com 1.10,2013-02-26 15:24:00,
2013-02-26 09:39:00,34.5,31.0,29.69,NW,308,15.0,22.0,88,0.01,,,0.10,weatherlink.com 1.10,2013-02-26 15:39:00,
2013-02-26 09:54:00,34.6,31.0,29.69,NW,308,13.0,18.0,88,0.00,,,0.10,weatherlink.com 1.10,2013-02-26 15:54:00,
2013-02-26 10:09:00,34.7,32.0,29.70,WNW,294,9.0,18.0,88,0.00,,,0.10,weatherlink.com 1.10,2013-02-26 16:09:00,
2013-02-26 10:24:00,34.8,31.0,29.71,NNW,332,6.0,20.0,87,0.00,,,0.10,weatherlink.com 1.10,2013-02-26 16:24:00,
2013-02-26 10:39:00,35.4,32.0,29.72,NW,310,8.0,20.0,86,0.00,,,0.10,weatherlink.com 1.10,2013-02-26 16:39:00,
2013-02-26 10:54:00,35.9,32.0,29.72,NW,313,5.0,17.0,84,0.00,,,0.10,weatherlink.com 1.10,2013-02-26 16:54:00,
2013-02-26 11:09:00,36.1,31.0,29.73,NW,316,13.0,15.0,83,0.00,,,0.10,weatherlink.com 1.10,2013-02-26 17:09:00,
2013-02-26 11:24:00,36.3,32.0,29.73,NW,304,6.0,17.0,83,0.00,,,0.10,weatherlink.com 1.10,2013-02-26 17:24:00,
2013-02-26 11:39:00,36.2,32.0,29.75,WNW,300,8.0,18.0,83,0.00,,,0.10,weatherlink.com 1.10,2013-02-26 17:39:00,
2013-02-26 11:54:00,36.4,31.0,29.74,NW,306,13.0,18.0,82,0.00,,,0.10,weatherlink.com 1.10,2013-02-26 17:54:00,
2013-02-26 12:09:00,36.5,32.0,29.75,West,273,7.0,20.0,82,0.00,,,0.10,weatherlink.com 1.10,2013-02-26 18:09:00,
2013-02-26 12:24:00,36.7,32.0,29.75,NW,321,12.0,20.0,82,0.00,,,0.10,weatherlink.com 1.10,2013-02-26 18:24:00,
2013-02-26 12:40:00,37.3,32.0,29.75,NW,316,17.0,21.0,81,0.00,,,0.10,weatherlink.com 1.10,2013-02-26 18:40:00,
2013-02-26 12:55:00,37.7,32.0,29.76,NW,308,6.0,15.0,81,0.00,,,0.10,weatherlink.com 1.10,2013-02-26 18:55:00,
2013-02-26 13:10:00,37.6,32.0,29.76,NW,317,14.0,20.0,79,0.00,,,0.10,weatherlink.com 1.10,2013-02-26 19:10:00,
2013-02-26 13:25:00,37.6,32.0,29.75,NW,309,9.0,16.0,79,0.00,,,0.10,weatherlink.com 1.10,2013-02-26 19:25:00,
2013-02-26 13:40:00,38.1,32.0,29.75,North,355,17.0,19.0,79,0.00,,,0.10,weatherlink.com 1.10,2013-02-26 19:40:00,
2013-02-26 13:55:00,38.6,32.0,29.75,NW,304,18.0,20.0,78,0.00,,,0.10,weatherlink.com 1.10,2013-02-26 19:55:00,
2013-02-26 14:10:00,38.3,32.0,29.75,NNW,334,11.0,18.0,78,0.00,,,0.10,weatherlink.com 1.10,2013-02-26 20:10:00,
2013-02-26 14:25:00,39.3,32.0,29.76,WNW,284,12.0,18.0,76,0.00,,,0.10,weatherlink.com 1.10,2013-02-26 20:25:00,
2013-02-26 14:40:00,39.5,33.0,29.76,NW,307,7.0,15.0,76,0.00,,,0.10,weatherlink.com 1.10,2013-02-26 20:40:00,
2013-02-26 14:55:00,39.3,32.0,29.77,NW,307,7.0,16.0,75,0.00,,,0.10,weatherlink.com 1.10,2013-02-26 20:55:00,
2013-02-26 15:10:00,39.4,32.0,29.77,NW,326,5.0,11.0,75,0.00,,,0.10,weatherlink.com 1.10,2013-02-26 21:10:00,
2013-02-26 15:25:00,39.9,32.0,29.77,NW,316,5.0,11.0,73,0.00,,,0.10,weatherlink.com 1.10,2013-02-26 21:25:00,
2013-02-26 15:40:00,39.9,33.0,29.78,NW,325,10.0,12.0,75,0.00,,,0.10,weatherlink.com 1.10,2013-02-26 21:40:00,
2013-02-26 15:55:00,39.8,32.0,29.79,NNW,327,6.0,8.0,75,0.00,,,0.10,weatherlink.com 1.10,2013-02-26 21:55:00,
2013-02-26 16:10:00,39.8,33.0,29.80,NW,322,0.0,7.0,76,0.00,,,0.10,weatherlink.com 1.10,2013-02-26 22:10:00,
2013-02-26 16:25:00,40.0,33.0,29.80,WNW,296,7.0,12.0,75,0.00,,,0.10,weatherlink.com 1.10,2013-02-26 22:25:00,
2013-02-26 16:40:00,39.8,32.0,29.81,NW,305,4.0,12.0,75,0.00,,,0.10,weatherlink.com 1.10,2013-02-26 22:40:00,
2013-02-26 16:55:00,39.8,32.0,29.81,WNW,301,3.0,15.0,75,0.00,,,0.10,weatherlink.com 1.10,2013-02-26 22:55:00,
2013-02-26 17:10:00,39.7,32.0,29.81,WNW,291,6.0,10.0,75,0.00,,,0.10,weatherlink.com 1.10,2013-02-26 23:10:00,
2013-02-26 17:25:00,39.6,32.0,29.82,NW,321,12.0,14.0,75,0.00,,,0.10,weatherlink.com 1.10,2013-02-26 23:25:00,
2013-02-26 17:40:00,39.4,32.0,29.82,NW,311,7.0,11.0,76,0.00,,,0.10,weatherlink.com 1.10,2013-02-26 23:40:00,
2013-02-26 17:55:00,39.1,32.0,29.82,NNW,347,9.0,12.0,75,0.00,,,0.10,weatherlink.com 1.10,2013-02-26 23:55:00,
2013-02-26 18:10:00,38.8,32.0,29.83,NW,311,5.0,13.0,76,0.00,,,0.10,weatherlink.com 1.10,2013-02-27 00:10:00,
2013-02-26 18:25:00,38.6,31.0,29.84,NW,321,4.0,10.0,75,0.00,,,0.10,weatherlink.com 1.10,2013-02-27 00:25:00,
2013-02-26 18:40:00,38.3,31.0,29.85,NW,306,5.0,9.0,76,0.00,,,0.10,weatherlink.com 1.10,2013-02-27 00:40:00,
2013-02-26 18:55:00,38.2,32.0,29.85,NNW,336,0.0,8.0,77,0.00,,,0.10,weatherlink.com 1.10,2013-02-27 00:55:00,
2013-02-26 19:10:00,38.0,31.0,29.86,NW,321,4.0,7.0,77,0.00,,,0.10,weatherlink.com 1.10,2013-02-27 01:10:00,
2013-02-26 19:25:00,38.0,31.0,29.87,NNW,329,0.0,5.0,77,0.00,,,0.10,weatherlink.com 1.10,2013-02-27 01:25:00,
2013-02-26 19:40:00,37.8,32.0,29.88,NNW,328,0.0,6.0,78,0.00,,,0.10,weatherlink.com 1.10,2013-02-27 01:40:00,
2013-02-26 19:55:00,37.8,32.0,29.89,NW,326,5.0,7.0,78,0.00,,,0.10,weatherlink.com 1.10,2013-02-27 01:55:00,
2013-02-26 20:10:00,37.9,31.0,29.89,WNW,302,6.0,8.0,77,0.00,,,0.10,weatherlink.com 1.10,2013-02-27 02:10:00,
2013-02-26 20:26:00,37.6,31.0,29.91,NW,309,0.0,10.0,77,0.00,,,0.10,weatherlink.com 1.10,2013-02-27 02:26:00,
2013-02-26 20:41:00,37.5,31.0,29.91,NW,304,4.0,9.0,77,0.00,,,0.10,weatherlink.com 1.10,2013-02-27 02:41:00,
2013-02-26 20:56:00,37.4,30.0,29.92,NW,308,4.0,11.0,76,0.00,,,0.10,weatherlink.com 1.10,2013-02-27 02:56:00,
2013-02-26 21:11:00,37.3,31.0,29.93,NW,319,5.0,6.0,77,0.00,,,0.10,weatherlink.com 1.10,2013-02-27 03:11:00,
2013-02-26 21:26:00,37.1,30.0,29.92,WNW,300,7.0,10.0,76,0.00,,,0.10,weatherlink.com 1.10,2013-02-27 03:26:00,
2013-02-26 21:41:00,36.9,30.0,29.93,NNW,328,6.0,9.0,77,0.00,,,0.10,weatherlink.com 1.10,2013-02-27 03:41:00,
2013-02-26 21:56:00,36.6,30.0,29.92,NNW,329,0.0,9.0,77,0.00,,,0.10,weatherlink.com 1.10,2013-02-27 03:56:00,
2013-02-26 22:11:00,36.2,30.0,29.90,North,355,4.0,8.0,77,0.00,,,0.10,weatherlink.com 1.10,2013-02-27 04:11:00,
2013-02-26 22:26:00,35.4,29.0,29.91,North,355,0.0,0.0,77,0.00,,,0.10,weatherlink.com 1.10,2013-02-27 04:26:00,
2013-02-26 22:41:00,34.6,29.0,29.91,North,355,0.0,1.0,79,0.00,,,0.10,weatherlink.com 1.10,2013-02-27 04:41:00,
2013-02-26 22:56:00,34.0,28.0,29.93,North,355,0.0,0.0,80,0.00,,,0.10,weatherlink.com 1.10,2013-02-27 04:56:00,
2013-02-26 23:11:00,33.6,29.0,29.93,North,355,0.0,3.0,82,0.00,,,0.10,weatherlink.com 1.10,2013-02-27 05:11:00,
2013-02-26 23:26:00,33.4,29.0,29.93,NNW,333,0.0,0.0,82,0.00,,,0.10,weatherlink.com 1.10,2013-02-27 05:26:00,
2013-02-26 23:41:00,33.0,28.0,29.93,NNW,333,0.0,0.0,83,0.00,,,0.10,weatherlink.com 1.10,2013-02-27 05:41:00,
2013-02-26 23:56:00,32.9,29.0,29.93,NNW,333,0.0,3.0,84,0.00,,,0.10,weatherlink.com 1.10,2013-02-27 05:56:00,